{"data":{"norad_id":63685,"epoch":"2026-09-20T07:20:47.725152Z","epoch_age_seconds":169359,"freshness":"FRESH","line1":"1 63685U 25085X   26263.30610793  .00012033  00000+0  44603-3 0  9994","line2":"2 63685  43.0019  11.8473 0001399 245.4005 114.6701 15.27583501 78634","mean_motion":15.27583501,"eccentricity":0.0001399,"inclination_deg":43.0019,"raan_deg":11.8473,"arg_perigee_deg":245.4005,"mean_anomaly_deg":114.6701,"bstar":0.00044603,"rev_number":7863,"period_min":94.266532667925,"perigee_km":482.07873433797,"apogee_km":483.99849127443,"semimajor_km":6861.1756128062,"source":"CELESTRAK","updated_at":"2026-09-21T09:00:35.061273Z"}}